• In Latvia
  • List of Countries
  • For 7 days
  • Water Temperature
  • Satellite Maps
  • Weather Map
  • Weather Widgets
  • user-avatar
    Login

    Hourly Weather Salta

    Today, 25 May, Friday

    Time Temperature Precipitation Wind Pressure Humidity
    00:00 +12°C° 0 mm 1 mps 652 mmHg 75%
    01:00 +12°C° 0 mm 1 mps 652 mmHg 73%
    02:00 +12°C° 0 mm 1 mps 652 mmHg 71%
    03:00 +12°C° 0 mm 1 mps 652 mmHg 69%
    04:00 +12°C° 0 mm 1 mps 652 mmHg 67%
    05:00 +11°C° 0 mm 1 mps 652 mmHg 65%
    06:00 +12°C° 0 mm 1 mps 652 mmHg 62%
    07:00 +13°C° 0 mm 1 mps 653 mmHg 60%
    08:00 +14°C° 0 mm 1 mps 653 mmHg 58%
    09:00 +16°C° 0 mm 1 mps 654 mmHg 50%
    10:00 +20°C° 0 mm 1 mps 655 mmHg 43%
    11:00 +21°C° 0 mm 2 mps 656 mmHg 36%
    12:00 +23°C° 0 mm 2 mps 655 mmHg 34%
    13:00 +24°C° 0 mm 2 mps 654 mmHg 33%
    14:00 +24°C° 0 mm 2 mps 654 mmHg 31%
    15:00 +23°C° 0 mm 2 mps 653 mmHg 36%
    16:00 +21°C° 0 mm 2 mps 653 mmHg 41%
    17:00 +20°C° 0 mm 2 mps 652 mmHg 46%
    18:00 +19°C° 0 mm 1 mps 652 mmHg 52%
    19:00 +16°C° 0 mm 1 mps 651 mmHg 58%
    20:00 +14°C° 0 mm 1 mps 651 mmHg 65%
    21:00 +13°C° 0 mm 1 mps 651 mmHg 64%
    22:00 +13°C° 0 mm 1 mps 651 mmHg 64%
    23:00 +12°C° 0 mm 1 mps 651 mmHg 64%

    Tomorrow, 26 May, Saturday

    Time Temperature Precipitation Wind Pressure Humidity
    00:00 +13°C° 0 mm 1 mps 650 mmHg 61%
    01:00 +13°C° 0 mm 1 mps 650 mmHg 59%
    02:00 +13°C° 0 mm 2 mps 650 mmHg 57%
    03:00 +13°C° 0 mm 2 mps 650 mmHg 56%
    04:00 +13°C° 0 mm 2 mps 650 mmHg 55%
    05:00 +13°C° 0 mm 2 mps 649 mmHg 53%
    06:00 +13°C° 0 mm 2 mps 650 mmHg 52%
    07:00 +14°C° 0 mm 2 mps 650 mmHg 52%
    08:00 +15°C° 0 mm 2 mps 650 mmHg 51%
    09:00 +17°C° 0 mm 2 mps 651 mmHg 48%
    10:00 +19°C° 0 mm 2 mps 651 mmHg 44%
    11:00 +21°C° 0 mm 2 mps 651 mmHg 41%
    12:00 +23°C° 0 mm 2 mps 651 mmHg 39%
    13:00 +24°C° 0 mm 2 mps 650 mmHg 36%
    14:00 +25°C° 0 mm 3 mps 650 mmHg 34%
    15:00 +24°C° 0 mm 2 mps 650 mmHg 39%
    16:00 +23°C° 0 mm 2 mps 649 mmHg 45%
    17:00 +21°C° 0 mm 2 mps 649 mmHg 51%
    18:00 +19°C° 0 mm 2 mps 649 mmHg 56%
    19:00 +18°C° 0 mm 1 mps 649 mmHg 61%
    20:00 +15°C° 0 mm 1 mps 649 mmHg 66%
    21:00 +15°C° 0 mm 1 mps 650 mmHg 65%
    22:00 +15°C° 0 mm 1 mps 650 mmHg 64%
    23:00 +14°C° 0 mm 1 mps 650 mmHg 63%

    Day after tomorrow, 27 May, Sunday

    Time Temperature Precipitation Wind Pressure Humidity
    00:00 +15°C° 0 mm 1 mps 650 mmHg 61%
    01:00 +15°C° 0 mm 1 mps 650 mmHg 59%
    02:00 +15°C° 0 mm 1 mps 650 mmHg 58%
    03:00 +15°C° 0 mm 1 mps 650 mmHg 56%
    04:00 +15°C° 0 mm 1 mps 650 mmHg 55%
    05:00 +15°C° 0 mm 1 mps 650 mmHg 54%
    06:00 +15°C° 0 mm 1 mps 651 mmHg 52%
    07:00 +16°C° 0 mm 1 mps 651 mmHg 51%
    08:00 +18°C° 0 mm 1 mps 652 mmHg 49%
    09:00 +20°C° 0 mm 1 mps 653 mmHg 45%
    10:00 +22°C° 0 mm 1 mps 653 mmHg 42%
    11:00 +25°C° 0 mm 2 mps 654 mmHg 38%
    12:00 +25°C° 0 mm 2 mps 653 mmHg 38%
    13:00 +26°C° 0 mm 2 mps 653 mmHg 38%
    14:00 +26°C° 0 mm 2 mps 652 mmHg 38%
    15:00 +25°C° 0 mm 2 mps 651 mmHg 43%
    16:00 +24°C° 0 mm 2 mps 651 mmHg 49%
    17:00 +23°C° 0 mm 2 mps 650 mmHg 55%
    18:00 +21°C° 0 mm 2 mps 650 mmHg 63%
    19:00 +19°C° 0 mm 2 mps 650 mmHg 71%
    20:00 +17°C° 0 mm 2 mps 650 mmHg 79%
    21:00 +17°C° 0 mm 2 mps 650 mmHg 78%
    22:00 +16°C° 0 mm 1 mps 650 mmHg 77%
    23:00 +16°C° 0 mm 1 mps 650 mmHg 76%

    28 May, Monday

    Time Temperature Precipitation Wind Pressure Humidity
    00:00 +16°C° 0 mm 2 mps 650 mmHg 72%
    01:00 +17°C° 0 mm 2 mps 649 mmHg 69%
    02:00 +17°C° 0 mm 2 mps 649 mmHg 65%
    03:00 +17°C° 0 mm 2 mps 649 mmHg 64%
    04:00 +17°C° 0 mm 2 mps 649 mmHg 63%
    05:00 +16°C° 0 mm 2 mps 648 mmHg 61%
    06:00 +17°C° 0 mm 2 mps 649 mmHg 60%
    07:00 +17°C° 0 mm 2 mps 649 mmHg 58%
    08:00 +18°C° 0 mm 2 mps 650 mmHg 56%
    09:00 +20°C° 0 mm 3 mps 650 mmHg 55%
    10:00 +21°C° 0 mm 3 mps 650 mmHg 54%
    11:00 +24°C° 0 mm 3 mps 650 mmHg 53%
    12:00 +24°C° 0 mm 3 mps 650 mmHg 51%
    13:00 +25°C° 0 mm 3 mps 649 mmHg 50%
    14:00 +25°C° 0 mm 3 mps 648 mmHg 49%
    15:00 +25°C° 0 mm 3 mps 648 mmHg 53%
    16:00 +24°C° 0 mm 2 mps 648 mmHg 56%
    17:00 +23°C° 0 mm 2 mps 647 mmHg 60%
    18:00 +21°C° 0 mm 2 mps 647 mmHg 61%
    19:00 +20°C° 0 mm 2 mps 647 mmHg 61%
    20:00 +18°C° 0 mm 2 mps 648 mmHg 62%
    21:00 +18°C° 0 mm 2 mps 648 mmHg 58%
    22:00 +18°C° 0 mm 2 mps 648 mmHg 55%
    23:00 +18°C° 0 mm 2 mps 648 mmHg 51%

    29 May, Tuesday

    Time Temperature Precipitation Wind Pressure Humidity
    00:00 +18°C° 0 mm 2 mps 648 mmHg 49%
    01:00 +18°C° 0 mm 2 mps 648 mmHg 47%
    02:00 +18°C° 0 mm 2 mps 648 mmHg 44%
    03:00 +18°C° 0 mm 2 mps 647 mmHg 43%
    04:00 +18°C° 0 mm 2 mps 647 mmHg 41%
    05:00 +17°C° 0 mm 2 mps 647 mmHg 39%
    06:00 +18°C° 0 mm 2 mps 648 mmHg 38%
    07:00 +18°C° 0 mm 2 mps 648 mmHg 37%
    08:00 +18°C° 0 mm 3 mps 648 mmHg 36%
    09:00 +21°C° 0 mm 2 mps 649 mmHg 32%
    10:00 +25°C° 0 mm 2 mps 649 mmHg 27%
    11:00 +28°C° 0 mm 2 mps 650 mmHg 22%
    12:00 +29°C° 0 mm 2 mps 649 mmHg 21%
    13:00 +30°C° 0 mm 2 mps 649 mmHg 20%
    14:00 +30°C° 0 mm 2 mps 648 mmHg 18%
    15:00 +29°C° 0 mm 2 mps 648 mmHg 24%
    16:00 +27°C° 0 mm 2 mps 648 mmHg 30%
    17:00 +26°C° 0 mm 2 mps 648 mmHg 35%
    18:00 +24°C° 0 mm 1 mps 648 mmHg 41%
    19:00 +22°C° 0 mm 1 mps 648 mmHg 47%
    20:00 +19°C° 0 mm 1 mps 648 mmHg 53%
    21:00 +19°C° 0 mm 1 mps 648 mmHg 54%
    22:00 +19°C° 0 mm 1 mps 649 mmHg 54%
    23:00 +18°C° 0 mm 1 mps 649 mmHg 55%

    30 May, Wednesday

    Time Temperature Precipitation Wind Pressure Humidity
    00:00 +17°C° 0 mm 2 mps 649 mmHg 53%
    01:00 +17°C° 0 mm 2 mps 648 mmHg 50%
    02:00 +17°C° 0 mm 2 mps 648 mmHg 48%
    03:00 +17°C° 0 mm 2 mps 648 mmHg 47%
    04:00 +17°C° 0 mm 2 mps 648 mmHg 46%
    05:00 +16°C° 0 mm 2 mps 648 mmHg 45%
    06:00 +17°C° 0 mm 2 mps 649 mmHg 46%
    07:00 +17°C° 0 mm 2 mps 649 mmHg 47%
    08:00 +18°C° 0 mm 2 mps 650 mmHg 47%
    09:00 +20°C° 0 mm 2 mps 650 mmHg 48%
    10:00 +21°C° 0 mm 2 mps 650 mmHg 48%
    11:00 +24°C° 0 mm 2 mps 650 mmHg 48%
    12:00 +24°C° 0 mm 3 mps 650 mmHg 46%
    13:00 +25°C° 0 mm 3 mps 649 mmHg 45%
    14:00 +26°C° 0 mm 3 mps 648 mmHg 43%
    15:00 +25°C° 0 mm 3 mps 648 mmHg 46%
    16:00 +22°C° 0 mm 3 mps 648 mmHg 50%
    17:00 +21°C° 0 mm 2 mps 648 mmHg 54%
    18:00 +20°C° 0 mm 2 mps 648 mmHg 59%
    19:00 +18°C° 0 mm 2 mps 648 mmHg 63%
    20:00 +16°C° 0 mm 2 mps 648 mmHg 68%
    21:00 +16°C° 0 mm 2 mps 648 mmHg 66%
    22:00 +16°C° 0 mm 2 mps 649 mmHg 64%
    23:00 +16°C° 0 mm 2 mps 649 mmHg 62%
    Show more